Location: Monteux
(44.0348°N, 4.9972°E)
Time: 17:35:18
(UTC+00:00)

YAOGAN 1 - Pass Details

Date: 30 November 2020
Orbit: 618 x 620 km, 97.9° (Epoch: 17 January)

Event Time Altitude Azimuth Distance (km) Brightness Sun altitude
Exits shadow 16:51:53 11° 62° (ENE) 1,932 4.4 -8.7°
Maximum altitude 16:52:02 11° 59° (ENE) 1,931 4.4 -8.7°
Drops below altitude 10° 16:53:11 10° 44° (NE) 1,996 4.6 -8.9°
Sets 16:57:03 0° 9° (N) 2,909 5.7 -9.5°
